Wind_Speed
8 8 7 6 6 6 7 9 11 12 13 15 17 18 20 22 22 23 24 24 25 25 26 25 24 24 22 21 19 18 16 16 15 13 13 16 23 31 30 28 23 18 21 18 13 10 14
8 7 6 5 6 6 7 8 10 12 13 15 18 20 21 23 23 24 24 25 26 27 27 28 29 29 26 25 24 22 20 19 19 17 12 15 18 26 31 30 27 21 23 20 11 12 16
8 7 5 6 6 7 8 10 11 13 14 16 16 17 18 20 21 21 22 23 24 25 25 25 28 30 30 30 29 26 25 23 21 21 16 14 16 20 29 31 31 31 24 24 22 26 14
7 7 5 6 8 9 10 11 11 11 12 13 15 16 17 20 20 20 22 23 24 22 20 18 20 23 26 28 30 31 28 27 25 24 21 20 17 18 24 31 32 33 21 24 22 20 17
7 8 6 7 9 10 10 11 13 14 14 14 13 14 14 15 14 15 16 16 16 17 17 18 18 20 22 24 27 29 31 31 30 27 25 24 21 18 22 26 32 33 26 28 30 27 20
8 8 7 7 8 9 10 11 11 11 11 11 12 13 15 16 16 17 18 19 17 17 18 18 17 18 19 20 23 25 28 32 32 32 28 28 26 22 23 24 32 37 32 31 29 29 25
9 7 7 7 8 8 7 7 7 9 11 13 15 16 18 20 21 20 20 18 20 21 21 18 17 17 18 18 19 22 25 28 31 34 33 29 27 27 26 26 28 36 37 34 34 30 26
8 7 7 7 4 4 5 7 9 11 14 16 19 20 21 20 20 19 20 20 20 20 20 19 18 18 18 18 16 19 23 26 29 33 35 33 31 31 30 28 28 32 40 40 37 35 30
8 8 6 1 1 3 4 7 12 14 14 15 13 14 16 15 15 19 20 21 19 20 20 19 18 17 17 19 18 16 19 24 27 29 34 34 33 33 31 31 30 32 38 44 42 39 34
8 6 3 3 2 8 8 7 9 12 13 13 12 14 17 20 16 17 17 20 20 20 18 19 19 20 19 17 18 17 15 20 25 28 31 33 33 33 33 32 33 32 35 43 48 46 42
6 7 5 3 3 4 4 7 9 9 10 14 15 16 17 20 19 19 19 20 22 24 24 21 23 24 23 23 19 16 15 16 23 27 30 32 32 33 31 32 35 35 35 38 47 49 43
10 6 4 2 1 2 1 4 7 10 13 14 16 19 22 22 22 19 21 23 24 23 24 26 26 31 29 23 21 18 14 14 19 25 29 32 32 31 33 32 33 36 36 37 41 49 50
6 5 3 4 7 5 7 11 13 13 17 19 20 20 22 23 23 23 23 24 28 27 26 29 29 31 31 26 22 21 17 14 16 23 26 30 31 31 32 31 31 35 37 37 38 43 54
5 6 3 5 8 9 10 13 16 19 21 19 21 22 23 24 24 25 25 26 28 30 29 31 34 35 36 28 25 22 21 16 14 20 26 29 32 33 34 33 32 35 37 38 38 41 45
4 4 7 10 13 11 13 16 18 20 22 21 25 26 26 28 28 28 28 30 27 27 30 33 36 41 36 31 25 25 24 21 17 16 23 30 32 34 36 36 35 33 36 36 37 38 42
6 7 10 11 14 16 19 21 22 23 27 29 30 31 32 33 32 32 31 32 32 27 31 33 39 40 38 37 35 26 28 26 22 18 19 26 31 33 34 34 34 34 34 35 37 38 39
9 10 12 15 17 20 24 26 27 28 31 34 34 36 35 35 34 35 36 35 34 28 33 36 39 41 41 39 39 32 28 29 25 22 20 24 29 32 33 33 33 33 34 35 36 36 37
11 14 16 20 24 27 28 31 33 33 33 33 34 33 34 34 36 37 37 38 35 33 33 36 38 41 43 41 41 36 33 30 28 26 24 23 27 29 32 33 33 33 34 36 35 36 37
17 20 24 26 30 33 34 34 35 36 36 32 29 33 34 36 39 40 40 40 40 39 38 36 40 42 44 44 41 37 34 33 32 29 27 25 24 28 30 32 33 34 34 34 34 35 37
23 27 30 33 35 35 34 35 37 36 36 33 34 36 40 41 44 45 45 46 45 44 44 42 41 44 44 45 42 38 33 34 35 33 31 28 27 25 31 33 34 34 34 34 34 35 37
29 31 33 35 35 35 35 35 37 37 37 39 40 41 44 46 48 49 50 50 51 50 49 49 45 44 46 47 44 40 32 39 37 38 34 33 31 29 29 31 34 35 33 33 32 33 36
34 36 37 38 38 38 36 35 38 40 42 45 46 48 48 50 52 55 56 55 56 57 56 54 51 48 46 51 45 39 34 44 45 41 38 38 38 32 29 28 30 35 38 36 35 34 33
40 41 41 42 41 41 41 42 43 44 47 49 52 54 56 57 57 59 59 60 63 63 62 61 55 53 49 49 46 41 34 43 50 47 43 41 41 39 33 28 30 36 35 36 37 35 35
45 45 44 45 44 45 47 48 49 52 54 55 57 59 63 65 65 67 64 63 65 61 60 59 58 54 53 48 45 43 39 40 48 50 48 44 44 41 39 33 31 33 33 33 35 35 35
49 49 49 48 49 52 54 55 57 58 60 62 64 66 68 72 70 71 70 63 58 56 57 57 51 52 53 50 44 44 42 41 46 52 51 48 46 46 42 38 35 36 35 35 38 36 36
51 52 54 55 56 57 59 61 64 66 67 68 70 72 74 72 74 73 67 65 64 58 53 54 53 50 51 48 44 47 44 42 48 52 52 48 48 48 45 40 38 38 36 35 34 37 36
57 60 61 62 64 65 67 68 71 72 72 74 74 72 73 75 72 69 69 66 63 56 52 51 52 55 54 53 48 49 45 45 50 53 54 51 51 48 45 44 40 40 39 39 38 37 35
63 65 67 70 71 74 75 76 77 76 76 74 74 76 76 75 70 70 71 63 56 51 49 48 50 53 55 57 52 49 45 49 50 51 55 52 51 49 48 46 42 39 40 42 43 42 41
72 74 74 76 78 79 79 77 76 75 74 73 73 74 75 73 70 70 65 56 50 47 46 48 49 50 52 52 46 42 47 51 50 51 51 51 50 50 47 47 44 44 42 40 41 42 40
Wind_Direction
300 296 305 302 302 305 293 279 274 277 275 275 275 277 279 280 280 281 285 285 284 281 279 274 271 269 263 265 265 262 259 263 271 269 259 246 233 230 229 223 217 214 215 222 217 233 275
293 287 301 307 308 300 289 286 280 279 278 278 277 278 280 283 283 285 287 289 288 285 278 272 268 266 265 264 262 261 257 257 256 262 260 250 238 228 226 222 211 210 199 205 213 258 270
282 284 297 311 311 297 288 293 294 294 294 294 297 295 293 293 294 295 294 295 295 293 291 288 280 271 263 259 258 256 254 253 251 251 252 255 243 231 223 221 215 205 214 216 197 218 241
273 275 294 303 313 311 311 314 314 313 308 305 303 301 300 300 304 305 305 307 309 312 313 302 287 277 268 260 255 250 248 247 248 245 243 247 242 234 225 219 217 212 213 208 217 229 236
267 273 285 302 314 316 313 312 312 316 321 325 326 326 326 325 332 326 324 322 324 326 325 321 314 298 282 264 255 250 246 243 243 243 241 241 242 234 234 219 217 215 209 208 213 207 226
256 270 291 299 303 306 307 311 321 335 343 344 339 334 330 326 329 328 325 320 320 326 326 320 318 307 300 282 262 252 246 242 240 239 239 237 238 235 233 227 217 214 207 210 212 220 218
248 272 291 295 300 309 322 335 336 333 332 334 331 327 325 322 324 327 326 327 324 321 325 319 318 324 310 298 279 259 248 241 238 235 237 236 236 234 233 229 222 218 214 211 213 220 228
248 273 282 296 320 347 339 330 329 330 329 326 326 326 328 332 342 342 338 331 327 330 329 328 317 315 325 322 296 267 250 243 238 233 234 235 237 234 231 229 225 220 218 207 208 215 218
253 264 278 303 26 347 333 315 311 321 328 338 356 360 358 1 4 11 7 2 350 344 341 332 329 321 321 329 324 292 256 244 237 235 232 233 236 234 231 230 226 223 218 212 212 214 215
243 244 213 170 347 327 331 14 41 21 10 4 350 358 1 3 341 345 355 358 359 3 358 351 338 331 326 323 326 319 281 249 237 235 233 231 234 234 231 230 230 227 222 217 215 221 224
219 190 189 281 67 52 58 70 35 22 6 343 345 341 344 342 346 340 344 341 347 345 347 344 347 342 327 317 315 321 306 265 240 236 231 231 231 232 230 231 230 228 226 221 219 221 218
178 210 262 164 33 40 44 357 332 330 329 327 332 330 327 332 341 335 334 333 337 336 331 336 333 332 326 312 310 299 306 277 252 237 233 231 233 234 231 232 231 232 229 225 221 221 220
222 254 199 174 348 346 316 313 312 311 314 314 321 323 324 331 333 336 330 331 334 331 326 326 328 331 327 315 298 296 286 289 257 243 235 234 235 234 234 234 235 231 230 229 225 224 220
199 227 242 295 323 322 311 312 312 314 316 317 321 323 324 327 332 332 326 328 330 327 321 319 327 327 328 320 301 285 282 276 278 250 237 233 235 233 232 234 233 232 229 230 228 223 222
210 267 284 299 306 306 303 304 312 312 316 310 309 314 316 321 326 330 327 326 325 318 316 321 321 324 324 315 306 284 276 274 271 266 245 236 232 232 232 233 231 231 230 230 231 229 225
242 280 298 297 299 304 306 308 311 308 312 313 309 310 314 320 324 325 325 324 329 313 313 319 324 327 327 318 313 289 271 269 266 264 255 241 234 231 230 232 232 231 230 231 231 230 228
248 263 277 287 296 302 305 308 313 312 312 312 310 313 316 318 322 324 323 323 325 314 315 316 319 325 327 318 317 295 266 262 262 259 261 247 237 232 229 229 230 231 231 231 231 231 231
274 282 290 297 299 304 306 308 310 314 315 313 309 311 313 317 318 322 321 320 319 313 311 313 314 316 320 321 314 302 271 254 255 252 258 257 244 235 231 229 229 228 229 229 230 230 232
288 292 300 303 305 306 307 308 308 309 310 310 307 310 313 315 317 318 319 318 315 314 312 307 311 311 316 315 312 306 271 250 251 249 251 252 252 237 232 230 230 230 228 227 227 229 229
295 301 304 305 306 307 306 304 300 300 304 306 307 309 312 314 314 315 317 317 315 312 311 307 306 309 311 311 309 307 267 242 249 247 243 251 252 245 236 232 229 230 233 230 227 231 235
299 302 302 304 303 301 300 301 301 303 304 306 308 308 309 311 311 312 314 314 312 310 307 307 303 302 306 306 303 304 271 236 242 245 244 245 249 248 241 236 234 232 234 234 230 232 237
298 302 302 302 302 300 300 302 302 302 302 304 306 307 307 308 307 309 310 310 308 304 301 302 301 296 299 302 298 297 281 242 234 237 241 246 245 242 245 236 234 234 236 234 238 236 243
300 301 299 298 300 298 299 301 302 303 304 304 305 306 307 308 307 308 309 305 303 300 296 294 293 293 292 297 293 291 284 246 241 237 233 240 245 246 242 238 235 236 234 235 237 240 240
297 298 298 299 299 299 300 300 302 303 303 304 304 304 305 306 306 306 305 302 299 297 292 288 289 288 291 289 285 285 285 247 240 241 234 236 243 242 242 238 237 243 242 242 241 240 237
295 296 297 297 297 298 298 298 300 302 302 302 302 304 305 304 305 306 306 302 300 299 294 292 285 284 285 283 281 283 282 256 236 239 234 233 238 242 241 239 239 239 245 246 245 242 241
295 297 297 297 298 299 298 298 299 300 301 302 302 302 301 303 306 307 305 303 299 296 292 288 284 281 282 276 275 279 275 254 236 236 231 231 236 241 243 241 240 241 240 246 241 238 247
294 295 295 296 297 297 296 297 298 299 300 301 300 301 301 304 305 306 305 301 299 293 287 283 280 281 277 274 273 272 264 242 232 234 234 229 231 237 239 239 238 239 237 241 242 248 252
294 294 295 296 297 297 297 297 296 296 297 298 299 299 303 304 306 305 305 302 296 292 288 283 280 279 277 278 278 267 247 228 229 229 232 232 229 232 237 237 235 239 240 240 242 247 253
294 294 294 294 294 295 295 295 294 296 297 298 300 300 302 303 305 308 307 302 297 292 287 284 284 281 280 277 268 245 221 220 221 225 228 231 232 235 237 236 234 238 237 240 240 245 248
Height
10914 10913 10912 10912 10912 10911 10911 10911 10911 10910 10910 10909 10909 10908 10907 10906 10906 10905 10905 10905 10905 10905 10905 10905 10905 10906 10908 10908 10908 10908 10909 10908 10906 10908 10908 10909 10912 10916 10921 10926 10930 10932 10934 10934 10937 10939 10939
10912 10911 10910 10910 10910 10910 10909 10909 10908 10907 10906 10905 10904 10903 10902 10901 10901 10901 10900 10899 10898 10898 10897 10897 10897 10898 10900 10902 10902 10903 10905 10904 10903 10904 10906 10906 10907 10910 10916 10921 10925 10929 10931 10932 10935 10937 10938
10910 10910 10909 10909 10908 10908 10907 10906 10906 10904 10903 10902 10901 10899 10898 10896 10896 10896 10895 10893 10892 10891 10890 10889 10889 10890 10891 10894 10895 10897 10898 10900 10900 10900 10902 10903 10904 10906 10910 10915 10921 10927 10928 10931 10934 10934 10937
10909 10909 10908 10907 10907 10906 10905 10904 10903 10902 10901 10899 10897 10896 10894 10892 10892 10892 10890 10889 10887 10885 10884 10883 10881 10880 10881 10884 10886 10888 10891 10893 10894 10895 10897 10898 10900 10903 10905 10910 10916 10922 10924 10928 10930 10932 10934
10907 10907 10906 10905 10905 10904 10903 10902 10900 10899 10897 10896 10894 10893 10891 10890 10890 10888 10887 10885 10883 10882 10880 10878 10876 10873 10873 10874 10876 10879 10882 10885 10887 10889 10892 10893 10896 10899 10900 10905 10910 10915 10919 10923 10926 10929 10931
10905 10905 10905 10904 10903 10902 10901 10899 10898 10896 10895 10894 10893 10891 10889 10888 10888 10886 10885 10882 10880 10878 10876 10874 10871 10869 10867 10866 10867 10870 10872 10876 10880 10882 10886 10888 10891 10894 10895 10900 10905 10909 10914 10917 10921 10925 10928
10903 10904 10903 10903 10902 10900 10899 10898 10896 10895 10894 10893 10891 10889 10887 10885 10885 10883 10881 10879 10877 10875 10872 10870 10868 10865 10863 10861 10860 10862 10864 10867 10871 10875 10878 10883 10886 10888 10890 10895 10898 10903 10908 10912 10917 10921 10925
10901 10902 10901 10900 10900 10899 10898 10897 10895 10894 10893 10892 10890 10887 10885 10882 10881 10879 10877 10875 10873 10871 10868 10866 10863 10862 10859 10856 10855 10854 10856 10859 10863 10866 10870 10875 10878 10881 10884 10888 10893 10897 10902 10907 10911 10915 10920
10900 10900 10899 10899 10899 10898 10897 10896 10894 10893 10891 10890 10888 10886 10884 10881 10879 10878 10875 10872 10870 10867 10865 10862 10860 10858 10855 10853 10850 10849 10849 10851 10855 10859 10862 10866 10870 10874 10878 10882 10886 10889 10895 10901 10906 10910 10914
10897 10897 10897 10898 10898 10897 10896 10894 10893 10892 10890 10888 10886 10884 10882 10879 10877 10875 10873 10870 10867 10865 10862 10859 10856 10854 10852 10850 10847 10845 10843 10845 10848 10851 10855 10858 10862 10866 10871 10875 10879 10883 10888 10894 10900 10904 10909
10895 10895 10896 10896 10896 10895 10895 10894 10892 10890 10889 10887 10885 10882 10880 10877 10875 10872 10869 10866 10864 10862 10861 10858 10854 10851 10848 10846 10844 10841 10839 10839 10842 10844 10847 10850 10855 10859 10864 10867 10870 10875 10880 10886 10891 10895 10902
10893 10894 10894 10894 10894 10894 10893 10892 10891 10890 10887 10885 10883 10880 10877 10875 10873 10869 10866 10863 10860 10857 10855 10854 10851 10847 10844 10841 10839 10837 10835 10834 10835 10838 10840 10843 10847 10853 10856 10860 10864 10867 10872 10878 10883 10888 10896
10892 10892 10893 10893 10893 10893 10892 10891 10889 10888 10885 10882 10880 10877 10874 10871 10870 10866 10862 10859 10856 10851 10848 10846 10845 10842 10838 10835 10834 10832 10831 10829 10829 10831 10834 10837 10840 10845 10849 10852 10855 10859 10864 10869 10875 10881 10888
10891 10891 10892 10892 10892 10891 10890 10888 10886 10884 10882 10879 10876 10873 10870 10867 10864 10862 10857 10854 10851 10846 10842 10838 10836 10834 10831 10828 10826 10826 10825 10825 10824 10824 10827 10830 10833 10837 10840 10844 10848 10852 10856 10861 10866 10872 10879
10890 10890 10890 10890 10889 10888 10887 10885 10883 10880 10877 10875 10871 10868 10865 10862 10859 10856 10852 10849 10845 10840 10835 10833 10829 10825 10822 10820 10819 10817 10818 10819 10819 10819 10820 10822 10825 10827 10831 10835 10840 10844 10848 10853 10858 10863 10870
10887 10887 10887 10886 10885 10884 10882 10880 10879 10876 10872 10870 10866 10863 10859 10856 10853 10849 10846 10842 10840 10835 10828 10826 10822 10817 10814 10811 10810 10809 10809 10810 10812 10813 10812 10813 10816 10819 10823 10827 10833 10837 10841 10846 10850 10855 10860
10884 10884 10883 10882 10881 10879 10877 10874 10873 10871 10868 10863 10859 10856 10853 10848 10845 10842 10839 10836 10833 10829 10823 10818 10814 10811 10808 10803 10800 10800 10800 10801 10805 10806 10806 10805 10807 10811 10815 10819 10824 10829 10834 10837 10842 10848 10852
10881 10881 10880 10878 10876 10874 10872 10868 10866 10864 10862 10858 10853 10848 10845 10841 10837 10834 10830 10827 10825 10821 10817 10811 10807 10803 10800 10797 10792 10789 10789 10792 10795 10797 10798 10799 10799 10803 10807 10811 10815 10821 10825 10830 10835 10840 10844
10878 10876 10875 10873 10871 10868 10866 10863 10859 10856 10853 10851 10847 10841 10837 10833 10829 10825 10822 10818 10814 10812 10809 10804 10799 10795 10792 10788 10784 10780 10778 10781 10785 10788 10790 10791 10792 10794 10798 10802 10807 10811 10816 10822 10827 10830 10834
10873 10871 10869 10866 10863 10860 10858 10854 10850 10847 10844 10841 10838 10835 10828 10824 10819 10815 10812 10808 10803 10799 10797 10795 10789 10785 10781 10778 10775 10772 10770 10771 10774 10778 10781 10783 10784 10787 10789 10793 10797 10802 10807 10812 10817 10821 10825
10866 10864 10861 10858 10854 10851 10848 10846 10842 10838 10834 10831 10828 10825 10821 10815 10808 10804 10800 10797 10792 10787 10784 10782 10779 10774 10771 10767 10765 10761 10760 10761 10764 10767 10771 10774 10776 10780 10782 10785 10789 10793 10797 10801 10807 10812 10814
10858 10855 10852 10848 10845 10842 10839 10836 10832 10828 10824 10820 10816 10812 10809 10806 10800 10793 10787 10783 10778 10772 10770 10767 10765 10762 10759 10754 10752 10750 10748 10750 10751 10756 10762 10764 10767 10771 10775 10779 10781 10785 10787 10792 10797 10802 10804
10847 10845 10842 10839 10836 10832 10828 10825 10821 10817 10813 10808 10804 10799 10794 10790 10787 10783 10777 10769 10761 10756 10752 10751 10750 10748 10746 10742 10738 10737 10736 10736 10740 10745 10750 10753 10757 10762 10766 10772 10775 10775 10779 10783 10787 10791 10795
10837 10834 10831 10828 10825 10821 10817 10813 10810 10805 10800 10795 10791 10785 10779 10772 10769 10766 10762 10756 10747 10738 10731 10730 10731 10730 10728 10728 10725 10722 10722 10723 10728 10734 10737 10743 10746 10750 10756 10762 10767 10769 10772 10776 10778 10782 10786
10825 10822 10819 10816 10812 10808 10803 10799 10795 10791 10786 10780 10774 10769 10762 10755 10752 10746 10739 10733 10728 10723 10713 10706 10712 10711 10708 10708 10709 10708 10707 10709 10714 10720 10725 10729 10735 10739 10746 10752 10756 10758 10763 10766 10770 10773 10777
10812 10809 10805 10801 10797 10793 10788 10783 10779 10775 10769 10763 10756 10750 10743 10737 10734 10724 10718 10710 10704 10702 10699 10691 10688 10692 10689 10690 10694 10690 10691 10694 10699 10706 10711 10717 10722 10728 10735 10742 10746 10748 10754 10757 10761 10763 10768
10798 10794 10790 10786 10781 10777 10772 10766 10761 10756 10751 10744 10737 10731 10723 10717 10716 10704 10697 10691 10683 10678 10676 10674 10671 10668 10668 10670 10675 10672 10674 10677 10683 10691 10698 10704 10710 10717 10722 10729 10734 10737 10744 10748 10750 10755 10759
10782 10778 10773 10768 10763 10757 10752 10747 10741 10736 10732 10725 10718 10710 10704 10696 10696 10685 10677 10669 10663 10658 10656 10655 10653 10649 10647 10644 10649 10652 10655 10660 10668 10677 10683 10691 10697 10705 10711 10719 10724 10728 10733 10737 10741 10745 10750
10765 10759 10755 10750 10744 10738 10731 10726 10720 10716 10710 10704 10698 10689 10683 10676 10675 10667 10656 10649 10645 10641 10637 10635 10634 10631 10627 10625 10627 10629 10637 10645 10656 10663 10671 10678 10685 10693 10700 10708 10713 10717 10722 10726 10731 10735 10740